FW0814 Weather Reports


Display with metric or nautical units.
time (UTC)temp
F
wind
direction
speed
MPH
gust
MPH
rain 1hr
in
rain 24hr
in
rain mn
in
humidity
%
barometer
mb
20210116085750 28 211 0.0 0.0 0.00 0.04 0.00 92 999.9
20210116085246 28 211 0.0 0.0 0.00 0.04 0.00 92 999.9
20210116084746 28 211 0.0 0.0 0.00 0.04 0.00 92 1000.0
20210116084251 28 211 0.0 0.0 0.00 0.04 0.00 92 1000.0
20210116083749 28 211 0.0 0.0 0.00 0.04 0.00 92 1000.0
20210116083248 28 211 0.0 0.0 0.00 0.04 0.00 92 1000.0
20210116082745 28 211 0.0 0.0 0.00 0.04 0.00 92 1000.0
20210116082250 28 211 0.0 0.0 0.00 0.04 0.00 92 1000.1
20210116081744 27 211 0.0 0.0 0.00 0.04 0.00 92 1000.1
20210116081245 27 211 0.0 0.0 0.00 0.04 0.00 92 1000.2
20210116080743 27 211 0.0 1.0 0.00 0.04 0.00 91 1000.3
20210116080247 27 212 0.0 1.0 0.00 0.04 0.00 91 1000.4
20210116075743 27 212 0.0 0.0 0.00 0.04 0.00 91 1000.5
20210116075244 27 229 0.0 0.0 0.00 0.04 0.00 91 1000.6
20210116074742 27 229 0.0 0.0 0.00 0.04 0.00 91 1000.7
20210116074241 27 229 0.0 0.0 0.00 0.04 0.00 91 1000.8
20210116073743 27 229 0.0 0.0 0.00 0.04 0.00 91 1001.0
20210116073242 27 229 0.0 0.0 0.00 0.04 0.00 91 1001.0
20210116072742 28 229 0.0 0.0 0.00 0.04 0.00 91 1001.0
20210116072241 28 229 0.0 0.0 0.00 0.04 0.00 91 1001.0
20210116071741 28 231 0.0 1.0 0.00 0.04 0.00 91 1001.0
20210116071243 28 231 0.0 1.0 0.00 0.04 0.00 91 1001.1
20210116070741 28 231 0.0 0.0 0.00 0.04 0.00 91 1001.1
20210116070247 28 231 0.0 0.0 0.00 0.04 0.00 91 1001.1
20210116065740 28 231 0.0 0.0 0.00 0.04 0.00 91 1001.1
20210116065239 27 231 0.0 0.0 0.00 0.04 0.00 91 1001.1
20210116064739 27 231 0.0 0.0 0.00 0.04 0.00 91 1001.1
20210116064239 27 231 0.0 0.0 0.00 0.04 0.00 91 1001.1
20210116063744 27 252 0.0 0.0 0.00 0.04 0.00 91 1001.0
20210116063243 27 254 0.0 0.0 0.00 0.04 0.00 91 1001.0
20210116062740 27 255 0.0 0.0 0.00 0.04 0.00 91 1001.1
20210116062241 27 254 0.0 0.0 0.00 0.04 0.00 91 1001.3
20210116061742 27 254 0.0 1.0 0.00 0.04 0.00 91 1001.3
20210116061241 27 254 0.0 1.0 0.00 0.04 0.00 91 1001.4
20210116060739 27 271 0.0 0.0 0.00 0.04 0.00 91 1001.4
20210116060237 27 264 0.0 0.0 0.00 0.04 0.00 91 1001.3
20210116055739 27 263 0.0 0.0 0.00 0.04 0.00 91 1001.2
20210116055239 26 263 0.0 0.0 0.00 0.04 0.00 91 1001.2
20210116054737 26 263 0.0 0.0 0.00 0.04 0.00 91 1001.2
20210116054238 26 263 0.0 0.0 0.00 0.04 0.00 91 1001.2
20210116053740 26 263 0.0 0.0 0.00 0.04 0.00 91 1001.4
20210116053237 26 255 0.0 0.0 0.00 0.04 0.00 91 1001.4
20210116052740 26 13 0.0 0.0 0.00 0.04 0.00 91 1001.4
20210116052241 26 13 0.0 0.0 0.00 0.04 0.00 91 1001.3
20210116051738 26 350 0.0 0.0 0.00 0.04 0.00 91 1001.3
20210116051241 26 346 0.0 0.0 0.00 0.04 0.00 91 1001.5
20210116050735 26 105 0.0 0.0 0.00 0.04 0.00 91 1001.4
20210116050243 26 104 0.0 0.0 0.00 0.04 0.00 90 1001.4
20210116045734 26 103 0.0 0.0 0.00 0.04 0.04 91 1001.4
20210116045241 26 103 0.0 0.0 0.00 0.04 0.04 90 1001.4
20210116044737 26 103 0.0 0.0 0.00 0.04 0.04 90 1001.5
20210116044238 26 103 0.0 0.0 0.00 0.04 0.04 90 1001.5
20210116043737 26 103 0.0 0.0 0.00 0.04 0.04 90 1001.6
20210116043239 26 101 0.0 0.0 0.00 0.04 0.04 90 1001.5
20210116042746 26 101 0.0 0.0 0.00 0.04 0.04 90 1001.7
20210116042234 26 101 0.0 0.0 0.00 0.04 0.04 90 1001.7
20210116041735 26 101 0.0 0.0 0.00 0.04 0.04 90 1001.8
20210116041234 26 99 0.0 0.0 0.00 0.04 0.04 91 1001.9
20210116040738 26 98 0.0 0.0 0.00 0.04 0.04 91 1001.9
20210116040234 26 98 0.0 0.0 0.00 0.04 0.04 91 1001.9
20210116035734 26 98 0.0 0.0 0.00 0.04 0.04 91 1001.9
20210116035234 26 101 0.0 0.0 0.00 0.04 0.04 91 1002.0
20210116034737 26 101 0.0 0.0 0.00 0.04 0.04 91 1002.0
20210116034234 26 100 0.0 0.0 0.00 0.04 0.04 91 1002.0
20210116033734 26 109 0.0 0.0 0.00 0.04 0.04 91 1002.0
20210116033234 26 86 0.0 0.0 0.00 0.04 0.04 91 1002.0
20210116032733 26 85 0.0 0.0 0.00 0.04 0.04 91 1002.1
20210116032235 27 84 0.0 0.0 0.00 0.04 0.04 91 1002.2
20210116031734 27 82 0.0 0.0 0.00 0.04 0.04 91 1002.2
20210116031234 27 82 0.0 0.0 0.00 0.04 0.04 90 1002.1
20210116030734 27 82 0.0 0.0 0.00 0.04 0.04 90 1002.1
20210116030232 27 82 0.0 0.0 0.00 0.04 0.04 90 1002.2
20210116025733 27 82 0.0 0.0 0.00 0.04 0.04 90 1002.2
20210116025231 27 81 0.0 0.0 0.00 0.04 0.04 90 1002.2
20210116024731 27 80 0.0 0.0 0.00 0.04 0.04 90 1002.1
20210116024231 28 80 0.0 0.0 0.00 0.04 0.04 90 1002.1
20210116023733 28 77 0.0 0.0 0.00 0.04 0.04 90 1002.2
20210116023232 28 84 0.0 0.0 0.00 0.04 0.04 90 1002.2
20210116022734 28 96 0.0 0.0 0.00 0.04 0.04 90 1002.2
20210116022232 28 103 0.0 0.0 0.00 0.04 0.04 90 1002.2
20210116021730 28 100 0.0 0.0 0.00 0.04 0.04 90 1002.2
20210116021230 28 100 0.0 0.0 0.00 0.04 0.04 90 1002.3
20210116020733 28 99 0.0 0.0 0.00 0.04 0.04 90 1002.3
20210116020228 28 104 0.0 0.0 0.00 0.04 0.04 90 1002.3
20210116015727 28 105 0.0 0.0 0.00 0.04 0.04 90 1002.3
20210116015227 28 104 0.0 0.0 0.00 0.04 0.04 90 1002.4
20210116014725 28 103 0.0 0.0 0.00 0.04 0.04 90 1002.4
20210116014225 28 102 0.0 0.0 0.00 0.04 0.04 90 1002.4
20210116013730 28 101 0.0 0.0 0.00 0.04 0.04 90 1002.4
20210116013224 29 100 0.0 0.0 0.00 0.04 0.04 89 1002.6
20210116012724 29 100 0.0 0.0 0.00 0.04 0.04 89 1002.6
20210116012222 29 109 0.0 0.0 0.00 0.04 0.04 89 1002.6
20210116011722 29 109 0.0 0.0 0.00 0.04 0.04 89 1002.8
20210116011219 29 109 0.0 0.0 0.00 0.04 0.04 89 1002.8
20210116010744 29 109 0.0 0.0 0.00 0.04 0.04 89 1002.8
20210116010219 29 119 0.0 0.0 0.00 0.04 0.04 89 1002.8
20210116005724 29 131 0.0 0.0 0.00 0.04 0.04 90 1002.8
20210116005219 29 130 0.0 0.0 0.00 0.04 0.04 90 1002.8
20210116004720 29 130 0.0 0.0 0.00 0.04 0.04 89 1002.9
20210116004228 30 130 0.0 0.0 0.00 0.04 0.04 89 1002.9
20210116003722 30 130 0.0 0.0 0.00 0.04 0.04 89 1002.9
20210116003223 30 130 0.0 0.0 0.00 0.04 0.04 89 1002.8
20210116002722 30 131 0.0 0.0 0.00 0.04 0.04 89 1002.9
20210116002220 30 131 0.0 0.0 0.00 0.04 0.04 89 1002.9
20210116001721 30 132 0.0 0.0 0.00 0.04 0.04 89 1002.8
20210116001215 30 111 0.0 0.0 0.00 0.04 0.04 89 1002.9
20210116000714 30 111 0.0 0.0 0.00 0.04 0.04 89 1002.9
20210116000218 30 119 0.0 0.0 0.00 0.04 0.04 89 1002.8
20210115235712 30 117 0.0 0.0 0.00 0.04 0.04 89 1002.8
20210115235230 30 125 0.0 0.0 0.00 0.04 0.04 89 1002.8
20210115234715 31 137 0.0 0.0 0.00 0.04 0.04 88 1002.7
20210115234222 31 157 0.0 0.0 0.00 0.04 0.04 88 1002.7
20210115233717 31 159 0.0 0.0 0.00 0.04 0.04 88 1002.6
20210115233209 31 198 0.0 0.0 0.00 0.04 0.04 87 1002.7
20210115232712 31 199 0.0 0.0 0.00 0.04 0.04 87 1002.6
20210115232209 32 200 0.0 0.0 0.00 0.04 0.04 87 1002.4
20210115231711 32 200 0.0 0.0 0.00 0.04 0.04 87 1002.4
20210115231212 32 201 0.0 1.0 0.00 0.04 0.04 86 1002.2
20210115230723 33 201 0.0 1.0 0.00 0.04 0.04 86 1002.2
20210115230211 33 202 0.0 0.0 0.00 0.04 0.04 85 1002.1
20210115225706 33 203 0.0 0.0 0.00 0.04 0.04 84 1002.1
20210115225207 33 203 0.0 0.0 0.00 0.04 0.04 83 1002.0
20210115224704 34 203 0.0 0.0 0.00 0.04 0.04 83 1002.0
20210115224214 35 204 0.0 0.0 0.00 0.04 0.04 81 1001.9
20210115223701 35 213 0.0 0.0 0.00 0.04 0.04 80 1001.9
20210115223202 37 214 0.0 0.0 0.00 0.04 0.04 77 1001.8
20210115222707 38 214 0.0 0.0 0.00 0.04 0.04 75 1001.7
20210115222204 39 214 0.0 0.0 0.00 0.04 0.04 74 1001.7
20210115221700 39 214 0.0 0.0 0.00 0.04 0.04 72 1001.7
20210115221159 39 212 0.0 0.0 0.00 0.04 0.04 72 1001.6
20210115220710 39 207 0.0 0.0 0.00 0.04 0.04 71 1001.6
20210115220201 39 232 0.0 0.0 0.00 0.04 0.04 72 1001.6
20210115215659 39 232 0.0 0.0 0.00 0.04 0.04 71 1001.6
20210115215159 39 259 0.0 0.0 0.00 0.04 0.04 71 1001.6
20210115214700 39 267 0.0 1.0 0.00 0.04 0.04 72 1001.7
20210115214158 39 244 0.0 1.0 0.00 0.04 0.04 71 1001.6
20210115213659 39 273 0.0 0.0 0.00 0.04 0.04 72 1001.7
20210115213159 39 255 0.0 1.0 0.00 0.04 0.04 74 1001.7
20210115212702 39 240 0.0 1.0 0.00 0.04 0.04 74 1001.6
20210115212157 39 217 0.0 4.0 0.00 0.04 0.04 74 1001.6
20210115211658 39 198 0.0 4.0 0.00 0.04 0.04 74 1001.7
20210115211203 39 240 0.0 0.0 0.00 0.04 0.04 76 1001.7
20210115210659 39 259 0.0 2.0 0.00 0.04 0.04 76 1001.7
20210115210158 38 230 0.0 2.0 0.00 0.04 0.04 76 1001.6
20210115205657 38 253 0.0 2.0 0.00 0.04 0.04 77 1001.6
20210115205203 38 267 0.0 2.0 0.00 0.04 0.04 77 1001.6
20210115204659 38 295 0.0 2.0 0.00 0.04 0.04 79 1001.7
20210115204156 38 232 0.0 2.0 0.00 0.04 0.04 79 1001.7
20210115203657 38 220 0.0 4.0 0.00 0.04 0.04 80 1001.8
20210115203158 38 285 0.0 4.0 0.00 0.04 0.04 81 1001.8
20210115202701 37 254 0.0 2.0 0.00 0.04 0.04 82 1001.9
20210115202156 37 311 0.0 4.0 0.00 0.04 0.04 83 1001.8
20210115201658 37 130 0.0 4.0 0.00 0.04 0.04 84 1001.8
20210115201156 36 235 0.0 4.0 0.00 0.04 0.04 86 1001.8
20210115200702 36 299 0.0 4.0 0.00 0.04 0.04 87 1001.8
20210115200156 36 255 0.0 2.0 0.00 0.04 0.04 88 1001.8
20210115195657 35 319 0.0 2.0 0.00 0.04 0.04 90 1001.8
20210115195157 35 277 1.0 4.0 0.00 0.04 0.04 88 1001.8
20210115194657 35 176 1.0 4.0 0.00 0.04 0.04 87 1001.9
20210115194157 35 294 0.0 4.0 0.00 0.04 0.04 88 1002.0
20210115193656 35 190 0.0 4.0 0.00 0.04 0.04 89 1002.1
20210115193158 35 240 0.0 3.0 0.00 0.04 0.04 89 1001.9
20210115192657 35 249 0.0 3.0 0.00 0.04 0.04 89 1002.1
20210115192158 35 225 0.0 3.0 0.00 0.04 0.04 89 1002.2
20210115191657 35 254 0.0 4.0 0.00 0.04 0.04 89 1002.3
20210115191157 35 292 1.0 4.0 0.00 0.04 0.04 89 1002.1
20210115190658 35 257 1.0 3.0 0.00 0.04 0.04 88 1002.3
20210115190202 35 252 1.0 3.0 0.00 0.04 0.04 88 1002.2
20210115185656 35 261 1.0 9.0 0.00 0.04 0.04 88 1002.2
20210115185157 35 279 1.0 9.0 0.00 0.04 0.04 88 1002.3
20210115184657 35 267 1.0 9.0 0.00 0.04 0.04 88 1002.3
20210115184157 35 284 1.0 4.0 0.00 0.04 0.04 89 1002.2
20210115183656 35 289 0.0 3.0 0.00 0.04 0.04 89 1002.2
20210115183155 35 272 1.0 10.0 0.00 0.04 0.04 89 1002.2
20210115182654 35 265 1.0 10.0 0.00 0.04 0.04 89 1002.1
20210115182156 35 264 1.0 4.0 0.00 0.04 0.04 89 1002.1
20210115181656 35 250 1.0 8.0 0.01 0.04 0.04 89 1001.9
20210115181155 35 259 1.0 8.0 0.01 0.04 0.04 89 1002.0
20210115180654 35 271 1.0 4.0 0.02 0.04 0.04 90 1001.8
20210115180159 35 272 2.0 8.0 0.02 0.04 0.04 90 1001.7
20210115175654 35 281 1.0 8.0 0.02 0.04 0.04 91 1001.7
20210115175155 36 273 1.0 4.0 0.03 0.04 0.04 92 1001.8
20210115174655 35 226 1.0 8.0 0.03 0.04 0.04 92 1001.8
20210115174154 35 269 1.0 9.0 0.03 0.04 0.04 92 1001.7
20210115173655 35 287 0.0 9.0 0.04 0.04 0.04 92 1001.9
20210115173157 35 248 1.0 7.0 0.04 0.04 0.04 92 1002.1
20210115172656 35 279 1.0 7.0 0.04 0.04 0.04 92 1002.0
20210115172155 35 272 1.0 9.0 0.04 0.04 0.04 91 1002.0
20210115171654 35 257 1.0 9.0 0.03 0.03 0.03 91 1001.9
20210115171156 35 267 0.0 4.0 0.03 0.03 0.03 90 1001.9
20210115170656 35 289 1.0 4.0 0.02 0.02 0.02 90 1002.1
20210115170153 35 267 1.0 3.0 0.02 0.02 0.02 90 1002.0
20210115165653 36 88 0.0 3.0 0.02 0.02 0.02 90 1002.1
20210115165152 36 264 1.0 3.0 0.01 0.01 0.01 90 1002.0
20210115164655 36 215 1.0 3.0 0.01 0.01 0.01 89 1001.9
20210115164152 36 284 0.0 3.0 0.01 0.01 0.01 89 1002.1
20210115163655 36 284 0.0 3.0 0.00 0.00 0.00 88 1002.2
20210115163203 36 232 0.0 3.0 0.00 0.00 0.00 87 1002.1
20210115162657 36 240 1.0 10.0 0.00 0.00 0.00 86 1001.9
20210115162153 37 236 1.0 10.0 0.00 0.00 0.00 84 1002.0
20210115161651 37 288 1.0 9.0 0.00 0.00 0.00 83 1002.0
20210115161155 38 322 1.0 7.0 0.00 0.00 0.00 81 1001.9
20210115160651 38 265 1.0 10.0 0.00 0.00 0.00 79 1001.7
20210115160151 39 221 1.0 10.0 0.00 0.00 0.00 78 1001.5
20210115155656 39 280 1.0 4.0 0.00 0.00 0.00 77 1001.4
20210115155149 39 269 1.0 4.0 0.00 0.00 0.00 77 1001.4
20210115154649 40 302 1.0 4.0 0.00 0.00 0.00 77 1001.4
20210115154148 40 301 0.0 4.0 0.00 0.00 0.00 76 1001.4
20210115153649 40 243 0.0 2.0 0.00 0.00 0.00 76 1001.3
20210115153149 39 256 0.0 2.0 0.00 0.00 0.00 76 1001.4
20210115152644 39 267 0.0 0.0 0.00 0.00 0.00 76 1001.3
20210115152142 39 197 0.0 0.0 0.00 0.00 0.00 76 1001.0
20210115151645 39 93 0.0 0.0 0.00 0.00 0.00 76 1000.8
20210115151143 39 24 0.0 1.0 0.00 0.00 0.00 76 1000.6
20210115150643 39 11 0.0 2.0 0.00 0.00 0.00 75 1000.5
20210115150141 40 80 0.0 2.0 0.00 0.00 0.00 75 1000.3
20210115145647 40 43 0.0 4.0 0.00 0.00 0.00 75 1000.5
20210115145140 40 324 1.0 4.0 0.00 0.00 0.00 76 1000.3
20210115144644 38 137 0.0 4.0 0.00 0.00 0.00 79 1000.1
20210115144144 36 53 0.0 1.0 0.00 0.00 0.00 80 1000.0
20210115143643 36 90 0.0 3.0 0.00 0.00 0.00 81 1000.1
20210115143141 35 84 1.0 3.0 0.00 0.00 0.00 81 1000.2
20210115142642 35 73 1.0 3.0 0.00 0.00 0.00 81 1000.3
20210115142139 35 96 1.0 4.0 0.00 0.00 0.00 82 1000.2
20210115141646 35 98 2.0 7.0 0.00 0.00 0.00 82 1000.3
20210115141139 34 96 2.0 10.0 0.00 0.00 0.00 82 1000.5
20210115140634 34 85 2.0 15.0 0.00 0.00 0.00 82 1000.5
20210115140136 34 97 2.0 15.0 0.00 0.00 0.00 82 1000.5
20210115135638 34 83 2.0 8.0 0.00 0.00 0.00 82 1000.5
20210115135136 35 110 1.0 6.0 0.00 0.00 0.00 81 1000.6
20210115134633 35 115 1.0 4.0 0.00 0.00 0.00 81 1000.6
20210115134135 35 103 1.0 4.0 0.00 0.00 0.00 81 1000.7
20210115133630 35 51 1.0 3.0 0.00 0.00 0.00 82 1000.7
20210115133131 34 86 1.0 9.0 0.00 0.00 0.00 82 1001.0
20210115132629 33 82 2.0 11.0 0.00 0.00 0.00 83 1000.6
20210115132129 33 64 2.0 11.0 0.00 0.00 0.00 83 1000.5
20210115131628 33 32 2.0 7.0 0.00 0.00 0.00 83 1000.6
20210115131130 33 74 2.0 8.0 0.00 0.00 0.00 83 1001.0
20210115130630 33 71 2.0 15.0 0.00 0.00 0.00 83 1001.1
20210115130223 33 89 2.0 15.0 0.00 0.00 0.00 83 1001.1
20210115125629 33 84 2.0 12.0 0.00 0.00 0.00 83 1001.2
20210115125126 33 109 2.0 7.0 0.00 0.00 0.00 83 1001.4
20210115124625 33 71 2.0 7.0 0.00 0.00 0.00 83 1001.5
20210115124126 33 57 2.0 10.0 0.00 0.00 0.00 82 1001.7
20210115123634 33 98 2.0 10.0 0.00 0.00 0.00 82 1001.7
20210115123127 33 107 2.0 7.0 0.00 0.00 0.00 83 1001.6
20210115122628 33 98 2.0 7.0 0.00 0.00 0.00 83 1001.5
20210115122127 33 91 2.0 7.0 0.00 0.00 0.00 83 1001.8
20210115121629 33 80 1.0 6.0 0.00 0.00 0.00 83 1001.8
20210115121212 33 98 1.0 10.0 0.00 0.00 0.00 83 1001.7
20210115120633 33 100 1.0 10.0 0.00 0.00 0.00 83 1001.9
20210115120142 33 73 1.0 6.0 0.00 0.00 0.00 83 1002.0
20210115115627 33 65 0.0 5.0 0.00 0.00 0.00 83 1002.0
20210115115129 33 65 1.0 3.0 0.00 0.00 0.00 83 1001.9
20210115114626 33 62 1.0 6.0 0.00 0.00 0.00 82 1001.7
20210115114127 33 95 1.0 6.0 0.00 0.00 0.00 82 1001.8
20210115113628 33 101 1.0 8.0 0.00 0.00 0.00 83 1001.8
20210115113133 33 100 1.0 8.0 0.00 0.00 0.00 83 1001.9
20210115112624 33 80 1.0 8.0 0.00 0.00 0.00 83 1002.0
20210115112124 33 109 1.0 8.0 0.00 0.00 0.00 82 1002.0
20210115111626 33 101 1.0 4.0 0.00 0.00 0.00 83 1002.1
20210115111124 33 111 1.0 4.0 0.00 0.00 0.00 83 1002.2
20210115110625 33 96 1.0 7.0 0.00 0.00 0.00 83 1002.2
20210115110127 33 97 1.0 7.0 0.00 0.00 0.00 83 1002.1
20210115105624 33 98 0.0 2.0 0.00 0.00 0.00 83 1002.1
20210115105124 33 59 1.0 4.0 0.00 0.00 0.00 83 1002.3
20210115104628 33 53 1.0 6.0 0.00 0.00 0.00 84 1002.3
20210115104123 32 101 1.0 6.0 0.00 0.00 0.00 85 1002.4
20210115103625 31 77 0.0 2.0 0.00 0.00 0.00 86 1002.6
20210115103127 31 82 0.0 2.0 0.00 0.00 0.00 87 1002.4
20210115102625 30 80 0.0 0.0 0.00 0.00 0.00 87 1002.4
20210115102126 30 76 0.0 0.0 0.00 0.00 0.00 88 1002.4
20210115101629 29 80 0.0 0.0 0.00 0.00 0.00 88 1002.4
20210115101127 29 103 0.0 0.0 0.00 0.00 0.00 89 1002.6
20210115100626 29 84 0.0 0.0 0.00 0.00 0.00 90 1002.7
20210115100136 28 70 0.0 2.0 0.00 0.00 0.00 90 1002.7
20210115095625 28 113 0.0 2.0 0.00 0.00 0.00 90 1002.8
20210115095125 28 113 0.0 0.0 0.00 0.00 0.00 90 1003.2
20210115094625 28 98 0.0 0.0 0.00 0.00 0.00 91 1003.3
20210115094125 27 101 0.0 0.0 0.00 0.00 0.00 91 1003.4
20210115093629 27 99 0.0 0.0 0.00 0.00 0.00 91 1003.5
20210115093126 27 101 0.0 0.0 0.00 0.00 0.00 91 1003.5
20210115092637 27 101 0.0 0.0 0.00 0.00 0.00 90 1003.5
20210115092125 27 101 0.0 0.0 0.00 0.00 0.00 90 1003.6
20210115091628 28 100 0.0 0.0 0.00 0.00 0.00 90 1003.8
20210115091125 28 100 0.0 0.0 0.00 0.00 0.00 90 1003.9
20210115090624 28 85 0.0 0.0 0.00 0.00 0.00 91 1004.0
20210115090135 27 115 0.0 0.0 0.00 0.00 0.00 91 1004.0